EW9634 Weather Reports


Display with metric or nautical units.
time (UTC)temp
F
wind
direction
speed
MPH
gust
MPH
rain 1hr
in
rain 24hr
in
rain mn
in
humidity
%
barometer
mb
20260904205403 95 225 1.0 3.0 0.00 0.00 0.00 53 1010.5
20260904204403 96 180 4.0 7.0 0.00 0.00 0.00 51 1010.5
20260904203403 95 158 2.0 5.0 0.00 0.00 0.00 54 1010.6
20260904202403 95 203 8.0 9.0 0.00 0.00 0.00 52 1010.7
20260904201403 95 203 5.0 7.0 0.00 0.00 0.00 52 1010.8
20260904200423 95 135 5.0 8.0 0.00 0.00 0.00 54 1010.8
20260904195402 94 203 2.0 4.0 0.00 0.00 0.00 51 1010.9
20260904194423 94 203 8.0 11.0 0.00 0.00 0.00 53 1011.0
20260904193403 94 180 5.0 11.0 0.00 0.00 0.00 54 1011.0
20260904192403 94 135 2.0 8.0 0.00 0.00 0.00 56 1011.1
20260904191423 94 248 5.0 9.0 0.00 0.00 0.00 54 1011.2
20260904190403 93 180 5.0 6.0 0.00 0.00 0.00 57 1011.2
20260904185402 93 158 7.0 17.0 0.00 0.00 0.00 56 1011.4
20260904184402 93 158 9.0 14.0 0.00 0.00 0.00 56 1011.6
20260904183444 93 158 5.0 10.0 0.00 0.00 0.00 57 1011.6
20260904182402 93 158 4.0 9.0 0.00 0.00 0.00 57 1011.7
20260904181402 92 225 9.0 13.0 0.00 0.00 0.00 59 1011.7
20260904180403 92 180 5.0 8.0 0.00 0.00 0.00 60 1011.7
20260904175422 92 180 6.0 9.0 0.00 0.00 0.00 59 1011.8
20260904174403 91 203 5.0 7.0 0.00 0.00 0.00 60 1011.9
20260904173443 91 180 9.0 13.0 0.00 0.00 0.00 60 1012.0
20260904172402 91 180 7.0 13.0 0.00 0.00 0.00 61 1012.1
20260904171423 90 203 4.0 8.0 0.00 0.00 0.00 63 1012.2
20260904170402 90 158 7.0 13.0 0.00 0.00 0.00 65 1012.3
20260904165403 90 135 9.0 13.0 0.00 0.00 0.00 63 1012.3
20260904164422 89 203 8.0 15.0 0.00 0.00 0.00 64 1012.4
20260904163402 89 203 8.0 12.0 0.00 0.00 0.00 65 1012.5
20260904162402 88 158 6.0 11.0 0.00 0.00 0.00 67 1012.4
20260904161403 88 203 7.0 10.0 0.00 0.00 0.00 66 1012.4
20260904160403 87 203 8.0 11.0 0.00 0.00 0.00 67 1012.5
20260904155423 87 225 5.0 7.0 0.00 0.00 0.00 70 1012.5
20260904154402 86 203 4.0 6.0 0.00 0.00 0.00 69 1012.6
20260904153402 86 248 5.0 7.0 0.00 0.00 0.00 70 1012.6
20260904152403 86 225 3.0 5.0 0.00 0.00 0.00 71 1012.4
20260904151402 84 225 6.0 11.0 0.00 0.00 0.00 71 1012.4
20260904150403 84 203 9.0 14.0 0.00 0.00 0.00 72 1012.4
20260904145403 84 248 7.0 9.0 0.00 0.00 0.00 73 1012.6
20260904144403 83 225 5.0 8.0 0.00 0.00 0.00 73 1012.2
20260904143524 83 225 8.0 15.0 0.00 0.00 0.00 74 1012.3
20260904142422 83 225 7.0 11.0 0.00 0.00 0.00 74 1012.2
20260904141402 82 203 6.0 10.0 0.00 0.00 0.00 76 1012.3
20260904140443 81 180 5.0 9.0 0.00 0.00 0.00 76 1012.2
20260904135402 81 180 5.0 11.0 0.00 0.00 0.00 77 1012.2
20260904134402 80 203 2.0 4.0 0.00 0.00 0.00 79 1012.3
20260904133402 79 180 2.0 4.0 0.00 0.00 0.00 79 1012.2
20260904132402 78 180 3.0 5.0 0.00 0.00 0.00 81 1012.1
20260904131402 78 158 4.0 10.0 0.00 0.00 0.00 81 1011.9
20260904130402 77 180 3.0 5.0 0.00 0.00 0.00 82 1011.9
20260904125422 76 180 3.0 7.0 0.00 0.00 0.00 83 1011.9
20260904124402 76 203 1.0 3.0 0.00 0.00 0.00 84 1011.7
20260904123402 75 203 1.0 2.0 0.00 0.00 0.00 85 1011.6
20260904122402 74 203 1.0 2.0 0.00 0.00 0.00 86 1011.5
20260904121402 74 135 1.0 1.0 0.00 0.00 0.00 86 1011.3
20260904120402 74 0.0 1.0 0.00 0.00 0.00 86 1011.3
20260904115422 73 135 1.0 4.0 0.00 0.00 0.00 86 1011.3
20260904114544 73 0.0 1.0 0.00 0.00 0.00 86 1011.2
20260904113422 73 180 1.0 2.0 0.00 0.00 0.00 87 1011.1
20260904112402 73 158 1.0 2.0 0.00 0.00 0.00 87 1011.1
20260904111402 73 0.0 1.0 0.00 0.00 0.00 86 1011.0
20260904110402 73 135 1.0 2.0 0.00 0.00 0.00 87 1011.0
20260904105402 73 0.0 0.0 0.00 0.00 0.00 87 1011.0
20260904104401 73 0.0 1.0 0.00 0.00 0.00 86 1011.1
20260904103402 73 0.0 0.0 0.00 0.00 0.00 85 1011.1
20260904102401 74 0.0 0.0 0.00 0.00 0.00 84 1011.1
20260904101402 74 0.0 1.0 0.00 0.00 0.00 84 1011.0
20260904100401 74 0.0 0.0 0.00 0.00 0.00 84 1010.8
20260904095401 74 0.0 1.0 0.00 0.00 0.00 84 1010.7
20260904094401 74 0.0 1.0 0.00 0.00 0.00 84 1010.7
20260904093401 74 0.0 2.0 0.00 0.00 0.00 84 1010.6
20260904092401 74 158 1.0 1.0 0.00 0.00 0.00 84 1010.5
20260904091401 74 0.0 1.0 0.00 0.00 0.00 84 1010.4
20260904090324 74 90 1.0 2.0 0.00 0.00 0.00 84 1010.2
20260904085306 74 135 1.0 2.0 0.00 0.00 0.00 84 1010.3
20260904084303 75 158 2.0 4.0 0.00 0.00 0.00 83 1010.3
20260904083303 75 0.0 1.0 0.00 0.00 0.00 82 1010.2
20260904082306 75 0.0 1.0 0.00 0.00 0.00 82 1010.1
20260904081304 76 0.0 1.0 0.00 0.00 0.00 80 1010.0
20260904080344 76 0.0 1.0 0.00 0.00 0.00 79 1009.8
20260904075306 77 0.0 1.0 0.00 0.00 0.00 79 1009.8
20260904074303 77 0.0 2.0 0.00 0.00 0.00 78 1009.8
20260904073303 77 0.0 0.0 0.00 0.00 0.00 77 1009.9
20260904072306 77 0.0 1.0 0.00 0.00 0.00 80 1009.9
20260904071324 77 0.0 0.0 0.00 0.00 0.00 77 1010.0
20260904070303 78 0.0 1.0 0.00 0.00 0.00 76 1010.0
20260904065306 78 0.0 0.0 0.00 0.00 0.00 75 1010.1
20260904064323 79 0.0 0.0 0.00 0.00 0.00 73 1010.0
20260904063303 81 0.0 1.0 0.00 0.00 0.00 72 1010.1
20260904062306 81 203 1.0 3.0 0.00 0.00 0.00 71 1010.1
20260904061304 81 203 1.0 3.0 0.00 0.00 0.00 71 1009.9
20260904060303 81 0.0 1.0 0.00 0.00 0.00 70 1010.1
20260904055323 81 203 2.0 3.0 0.00 0.00 0.00 69 1010.0
20260904054303 82 203 1.0 2.0 0.00 0.00 0.00 68 1010.1
20260904053303 82 0.0 2.0 0.00 0.00 0.00 68 1010.0
20260904052306 82 180 1.0 2.0 0.00 0.00 0.00 67 1010.0
20260904051303 82 203 2.0 6.0 0.00 0.00 0.00 67 1010.0
20260904050303 82 203 1.0 3.0 0.00 0.00 0.00 67 1009.9
20260904045402 82 180 1.0 5.0 0.00 0.00 0.00 67 1009.8
20260904044402 82 0.0 2.0 0.00 0.00 0.00 67 1009.9
20260904043402 82 0.0 2.0 0.00 0.00 0.00 68 1009.8
20260904042402 82 0.0 1.0 0.00 0.00 0.00 69 1009.7
20260904041402 81 0.0 2.0 0.00 0.00 0.00 70 1009.6
20260904040401 81 0.0 1.0 0.00 0.00 0.00 70 1009.5
20260904035402 81 0.0 1.0 0.00 0.00 0.00 69 1009.4
20260904034402 82 0.0 2.0 0.00 0.00 0.00 68 1009.4
20260904033442 83 158 1.0 2.0 0.00 0.00 0.00 68 1009.4
20260904032401 82 0.0 1.0 0.00 0.00 0.00 69 1009.3
20260904031422 82 0.0 1.0 0.00 0.00 0.00 71 1009.4
20260904030442 81 0.0 1.0 0.00 0.00 0.00 72 1009.4
20260904025401 81 0.0 1.0 0.00 0.00 0.00 74 1009.4
20260904024423 81 0.0 1.0 0.00 0.00 0.00 73 1009.4
20260904023404 82 0.0 0.0 0.00 0.00 0.00 71 1009.3
20260904022403 83 0.0 1.0 0.00 0.00 0.00 70 1009.2
20260904021403 83 0.0 1.0 0.00 0.00 0.00 68 1009.0
20260904020403 83 0.0 1.0 0.00 0.00 0.00 69 1008.9
20260904015403 82 0.0 1.0 0.00 0.00 0.00 71 1008.6
20260904014403 83 0.0 0.0 0.00 0.00 0.00 70 1008.6
20260904013404 84 135 1.0 3.0 0.00 0.00 0.00 68 1008.5
20260904012404 84 0.0 1.0 0.00 0.00 0.00 68 1008.3
20260904011403 85 0.0 1.0 0.00 0.00 0.00 65 1008.2
20260904010404 86 0.0 1.0 0.00 0.00 0.00 64 1008.2
20260904005423 87 0.0 2.0 0.00 0.00 0.00 65 1008.1
20260904004423 88 0.0 1.0 0.00 0.00 0.00 61 1008.0
20260904003403 89 135 1.0 2.0 0.00 0.00 0.00 59 1008.0
20260904002404 89 180 1.0 3.0 0.00 0.00 0.00 58 1008.0
20260904001403 90 158 2.0 3.0 0.00 0.00 0.00 57 1008.0
20260904000403 91 135 2.0 7.0 0.00 0.00 0.00 54 1008.1
20260903235403 93 135 2.0 3.0 0.00 0.00 0.00 52 1008.2
20260903234424 93 158 3.0 6.0 0.00 0.00 0.00 51 1008.3
20260903233403 94 158 4.0 9.0 0.00 0.00 0.00 51 1008.2
20260903232403 94 135 4.0 8.0 0.00 0.00 0.00 52 1008.1
20260903231403 94 135 6.0 9.0 0.00 0.00 0.00 51 1008.1
20260903230403 94 135 3.0 7.0 0.00 0.00 0.00 52 1008.0
20260903225403 95 135 5.0 11.0 0.00 0.00 0.00 51 1008.1
20260903224404 95 135 7.0 10.0 0.00 0.00 0.00 50 1008.1
20260903223403 95 158 3.0 6.0 0.00 0.00 0.00 48 1008.2
20260903222403 96 203 6.0 8.0 0.00 0.00 0.00 49 1008.4
20260903221403 96 180 2.0 3.0 0.00 0.00 0.00 48 1008.4
20260903220403 96 203 5.0 7.0 0.00 0.00 0.00 47 1008.5
20260903215403 96 135 4.0 7.0 0.00 0.00 0.00 49 1008.7
20260903214403 96 180 2.0 13.0 0.00 0.00 0.00 48 1008.7
20260903213403 96 203 6.0 10.0 0.00 0.00 0.00 48 1008.9
20260903212423 96 180 6.0 11.0 0.00 0.00 0.00 48 1008.8
20260903211403 96 158 2.0 4.0 0.00 0.00 0.00 48 1008.9
20260903210403 96 203 7.0 12.0 0.00 0.00 0.00 47 1009.0